Regional Weather Roundup
Issued by NWS

Home | Current Version | Previous Version | Graphics & Text | Print | Product List | Glossary Off
Versions: 1 2 3 4 5 6 7 8 9 10 11 12 13 14 15 16 17 18 19 20 21 22 23 24 25 26 27 28 29 30 31 32 33 34 35 36 37 38 39 40 41 42 43 44 45 46 47 48 49 50

000
ASUS43 KTOP 301708
RWRKS

WEATHER ROUNDUP FOR KANSAS
NATIONAL WEATHER SERVICE GOODLAND KS
1200 PM CDT TUE SEP 30 2014

NOTE:  "FAIR" INDICATES FEW OR NO CLOUDS BELOW 12,000 FEET WITH NO
SIGNIFICANT WEATHER AND/OR OBSTRUCTIONS TO VISIBILITY.

KSZ001>006-013>018-027>032-041>047-301800-
NORTHWEST KANSAS

CITY           SKY/WX    TMP DP  RH WIND       PRES   REMARKS
GOODLAND       SUNNY     67  46  47 S14       29.84F
HAYS           CLOUDY    68  59  73 S14       29.81S
HILL CITY      CLOUDY    71  59  65 S8        29.80F
RUSSELL        CLOUDY    67  64  90 S8        29.81F
$$

KSZ061>065-074>080-084>089-301800-
SOUTHWEST KANSAS

CITY           SKY/WX    TMP DP  RH WIND       PRES   REMARKS
DODGE CITY     MOSUNNY   76  56  49 SW14G26   29.81F
GARDEN CITY    CLOUDY    69  60  73 SW6       29.81F
GREAT BEND     CLOUDY    70  61  73 S18G25    29.80F
LIBERAL        MOSUNNY   75  55  50 W10       29.82F
PRATT          CLOUDY    73  59  60 S17G23    29.83F
$$

KSZ066>073-081>083-090>101-301800-
SOUTHEAST KANSAS

CITY           SKY/WX    TMP DP  RH WIND       PRES   REMARKS
CHANUTE        SUNNY     80  63  55 S16       29.91F
COFFEYVILLE    SUNNY     80  62  54 S14       29.91F
HUTCHINSON     PTSUNNY   78  61  55 S17G25    29.84F
MEDICINE LODGE   N/A     79  61  53 S18G25    29.81F
NEWTON         PTSUNNY   75  61  60 S20       29.88F
PARSONS        SUNNY     81  64  56 S10       29.93F
WICHITA INTL   PTSUNNY   79  61  53 S21G30    29.85F
WICHITA JABRA  PTSUNNY   79  61  53 S17       29.86F
WICHITA MCCONL MOSUNNY   80  62  53 S20G28    29.86F
WINFIELD       SUNNY     82  62  50 S17       29.88F
$$

KSZ007>012-019>026-033>040-048>060-102>105-301800-
NORTHEAST KANSAS

CITY           SKY/WX    TMP DP  RH WIND       PRES   REMARKS
CONCORDIA      RAIN      64  63  96 S10       29.84F FOG
EMPORIA          N/A     80  61  52 S24G31    29.88F
LAWRENCE       SUNNY     81  61  50 S10G21    29.89F
MANHATTAN      CLOUDY    80  60  50 SW18G24   29.84F
MARYSVILLE     CLOUDY    72  63  73 SW8       29.85F
OLATHE IND     SUNNY     80  62  54 S12       29.91F
OLATHE EXE     SUNNY     79  60  52 S12G18    29.91F
SALINA         RAIN      68  64  87 S8        29.85F FOG
TOPEKA BILLARD SUNNY     85  61  44 S17G24    29.87F
TOPEKA FORBES  SUNNY     82  59  45 S20G25    29.87F
$$



USA.gov is the U.S. government's official web portal to all federal, state and local government web resources and services.